Williamtown, Australia

6:14 AM AEDT on December 15, 2017 (GMT +1100)
Williamtown Military

Weather History for YWLM - February, 2014

Change the Weather History Date:

Monday, February 17, 2014

  Actual Average Record
Temperature  
Mean Temperature 72 °F -  
Max Temperature 78 °F - - ()
Min Temperature 66 °F - - ()
Cooling Degree Days 7    
Growing Degree Days 22 (Base 50)    
Moisture  
Dew Point 62 °F    
Average Humidity 73    
Maximum Humidity 100    
Minimum Humidity 45    
Precipitation  
Precipitation 0.01 in - - ()
Sea Level Pressure  
Sea Level Pressure 29.88 in    
Wind  
Wind Speed 13 mph ()    
Max Wind Speed 22 mph    
Max Gust Speed -    
Visibility 6.2 miles    
Events      
T = Trace of Precipitation, MM = Missing Value Source: Averaged Metar Reports

Daily Weather History Graph

Daily Weather History Graph

Search for Another Location

Airport or City:

Trip Planner

Search our weather history database for the weather conditions in past years. The results will help you decide how hot, cold, wet, or windy it might be!

Date:

Astronomy

Feb. 17, 2014 Rise Set
Actual Time 6:30 AM AEDT 7:42 PM AEDT
Civil Twilight 6:05 AM AEDT 8:07 PM AEDT
Nautical Twilight 5:34 AM AEDT 8:38 PM AEDT
Astronomical Twilight 5:02 AM AEDT 9:09 PM AEDT
Moon 8:40 PM AEDT (2/17) 8:16 AM AEDT (2/17)
Length of Visible Light 14h 02m
Length of Day
13h 11m
Waning Gibbous, 96% of the Moon is Illuminated
Feb 17
Waning Gibbous
Feb 23
Last Quarter
Mar 1
New
Mar 9
First Quarter
Mar 17
Full

Hourly Weather History & Observations

Time (AEDT) Temp. Dew Point Humidity Pressure Visibility Wind Dir Wind Speed Gust Speed Precip Events Conditions
12:00 AM 67 °F 65 °F 91% 29.80 in - South 21.9 mph - -   Overcast
12:00 AM 68.0 °F 64.4 °F 88% 29.77 in - South 21.9 mph - N/A   Overcast
12:30 AM 68.0 °F 66.2 °F 94% 29.80 in - South 19.6 mph - N/A   Overcast
1:00 AM 66.2 °F 64.4 °F 94% 29.80 in - South 19.6 mph - N/A   Overcast
1:18 AM 66.2 °F 66.2 °F 100% 29.80 in - South 11.5 mph - N/A   Overcast
1:30 AM 66.2 °F 64.4 °F 94% 29.80 in - South 17.3 mph - N/A   Overcast
2:00 AM 66 °F 65 °F 94% 29.81 in - SSE 12.7 mph - -  
2:00 AM 66.2 °F 64.4 °F 94% 29.80 in - SSE 12.7 mph - N/A   Overcast
2:30 AM 66.2 °F 64.4 °F 94% 29.80 in - South 6.9 mph - N/A   Overcast
3:00 AM 68 °F 65 °F 87% 29.81 in - South 10.4 mph - -   Overcast
3:00 AM 68.0 °F 64.4 °F 88% 29.80 in - South 10.4 mph - N/A   Overcast
3:30 AM 68.0 °F 64.4 °F 88% 29.80 in - South 8.1 mph - N/A   Overcast
4:00 AM 68.0 °F 64.4 °F 88% 29.80 in - South 8.1 mph - N/A   Overcast
4:30 AM 68.0 °F 64.4 °F 88% 29.80 in - SSW 6.9 mph - N/A   Overcast
5:00 AM 68 °F 65 °F 88% 29.83 in - South 8.1 mph - -  
5:00 AM 68.0 °F 66.2 °F 94% 29.80 in - South 8.1 mph - N/A   Overcast
5:30 AM 68.0 °F 64.4 °F 88% 29.83 in - South 10.4 mph - N/A   Overcast
6:00 AM 68 °F 64 °F 83% 29.85 in - South 9.2 mph - -   Overcast
6:00 AM 68.0 °F 64.4 °F 88% 29.83 in - South 9.2 mph - N/A   Overcast
6:30 AM 68.0 °F 62.6 °F 83% 29.86 in 6.2 mi South 10.4 mph - N/A   Mostly Cloudy
7:00 AM 68.0 °F 62.6 °F 83% 29.86 in 6.2 mi South 10.4 mph - N/A   Scattered Clouds
7:30 AM 69.8 °F 64.4 °F 83% 29.86 in 6.2 mi South 9.2 mph - N/A   Partly Cloudy
8:00 AM 71 °F 64 °F 71% 29.89 in - South 10.4 mph - -  
8:00 AM 71.6 °F 64.4 °F 78% 29.89 in 6.2 mi South 10.4 mph - N/A   Partly Cloudy
8:30 AM 71.6 °F 64.4 °F 78% 29.89 in 6.2 mi South 13.8 mph - N/A   Partly Cloudy
9:00 AM 73 °F 63 °F 62% 29.91 in - South 13.8 mph - -  
9:00 AM 73.4 °F 62.6 °F 69% 29.89 in 6.2 mi South 13.8 mph - N/A   Partly Cloudy
9:30 AM 73.4 °F 62.6 °F 69% 29.92 in 6.2 mi South 15.0 mph - N/A   Scattered Clouds
10:00 AM 75.2 °F 62.6 °F 65% 29.92 in 6.2 mi South 16.1 mph - N/A   Scattered Clouds
10:30 AM 75.2 °F 62.6 °F 65% 29.92 in 6.2 mi South 17.3 mph - N/A   Scattered Clouds
11:00 AM 76 °F 62 °F 52% 29.94 in - South 18.4 mph - -  
11:00 AM 75.2 °F 62.6 °F 65% 29.92 in 6.2 mi South 18.4 mph - N/A   Scattered Clouds
11:30 AM 77.0 °F 60.8 °F 57% 29.92 in 6.2 mi South 17.3 mph - N/A   Scattered Clouds
12:00 PM 77 °F 61 °F 48% 29.94 in - South 16.1 mph - -  
12:00 PM 77.0 °F 60.8 °F 57% 29.92 in 6.2 mi South 16.1 mph - N/A   Scattered Clouds
12:30 PM 77.0 °F 60.8 °F 57% 29.92 in 6.2 mi South 18.4 mph - N/A   Scattered Clouds
1:00 PM 77.0 °F 60.8 °F 57% 29.92 in 6.2 mi South 17.3 mph - N/A   Scattered Clouds
1:30 PM 77.0 °F 62.6 °F 61% 29.92 in 6.2 mi South 18.4 mph - N/A   Scattered Clouds
2:00 PM 76 °F 62 °F 52% 29.93 in - South 18.4 mph - -  
2:00 PM 77.0 °F 62.6 °F 61% 29.92 in 6.2 mi South 18.4 mph - N/A   Scattered Clouds
2:30 PM 75.2 °F 62.6 °F 65% 29.92 in 6.2 mi SSE 18.4 mph - N/A   Scattered Clouds
3:00 PM 77 °F 62 °F 50% 29.92 in - South 17.3 mph - -  
3:00 PM 77.0 °F 62.6 °F 61% 29.92 in 6.2 mi South 17.3 mph - N/A   Scattered Clouds
3:30 PM 78.8 °F 60.8 °F 54% 29.89 in 6.2 mi SSE 17.3 mph - N/A   Scattered Clouds
4:00 PM 77.0 °F 60.8 °F 57% 29.89 in 6.2 mi SSE 17.3 mph - N/A   Scattered Clouds
4:30 PM 75.2 °F 60.8 °F 61% 29.89 in 6.2 mi SSE 17.3 mph - N/A   Mostly Cloudy
5:00 PM 75 °F 58 °F 45% 29.91 in - SSE 16.1 mph - -  
5:00 PM 75.2 °F 57.2 °F 53% 29.89 in 6.2 mi SSE 16.1 mph - N/A   Mostly Cloudy
5:30 PM 73.4 °F 59.0 °F 61% 29.89 in 6.2 mi SE 16.1 mph - N/A   Mostly Cloudy
6:00 PM 73 °F 59 °F 52% 29.91 in - SE 15.0 mph - -   Overcast
6:00 PM 73.4 °F 59.0 °F 61% 29.89 in 6.2 mi SE 15.0 mph - N/A   Scattered Clouds
6:30 PM 73.4 °F 59.0 °F 61% 29.89 in 6.2 mi SE 16.1 mph - N/A   Scattered Clouds
7:00 PM 73.4 °F 59.0 °F 61% 29.89 in 6.2 mi SE 16.1 mph - N/A   Scattered Clouds
7:30 PM 71.6 °F 60.8 °F 69% 29.92 in 6.2 mi SE 11.5 mph - N/A   Scattered Clouds
8:00 PM 70 °F 61 °F 65% 29.92 in - SE 9.2 mph - -  
8:00 PM 69.8 °F 60.8 °F 73% 29.92 in - SE 9.2 mph - N/A   Clear
8:30 PM 69.8 °F 60.8 °F 73% 29.92 in - ESE 8.1 mph - N/A   Clear
9:00 PM 70 °F 62 °F 67% 29.94 in - SE 8.1 mph - -   Overcast
9:00 PM 69.8 °F 60.8 °F 73% 29.92 in - SE 8.1 mph - N/A   Clear
9:30 PM 69.8 °F 60.8 °F 73% 29.95 in - SE 6.9 mph - N/A   Clear
10:00 PM 69.8 °F 62.6 °F 78% 29.95 in - SSE 5.8 mph - N/A   Clear
10:30 PM 69.8 °F 62.6 °F 78% 29.95 in - SSE 5.8 mph - N/A   Clear
11:00 PM 70 °F 62 °F 70% 29.95 in - SSE 8.1 mph - -  
11:00 PM 69.8 °F 62.6 °F 78% 29.95 in - SSE 8.1 mph - N/A   Overcast
11:30 PM 69.8 °F 62.6 °F 78% 29.92 in - SE 8.1 mph - N/A   Overcast